Find Starlink 31691

NORAD ID: 59856 Int'l Des: 2024-097 Owner: SPXS Country: US Constellation: starlink operational
LEOCIRCULAR

リアルタイム位置

3D地球を読み込み中...

Starlink 31691について

説明を読み込み中...

次回通過

Passes for default location (London). Set your location on the main map for personalized predictions.

高度履歴

Loading altitude history...

軌道要素

1 59856U 24097X 26125.52435965 .00003653 00000-0 14231-3 0 9991
2 59856 43.0061 312.9781 0001735 275.5095 84.5559 15.27562262110612
Epoch: May 5, 2026 • Age: 9 hours

現在のステータス

高度 483.4 km
速度 7.63 km/s
衛星直下点 -3.25°S, 47.88°W
打ち上げ日 May 23, 2024
運用期間 1.9 years
タイプ internet

技術仕様

分類 Payload
質量 730.00 kg
乾燥質量 700.00 kg
総質量 730.00 kg
長さ 0.30 m
直径 4.10 m
スパン 29.00 m
形状 Box + pan
製造者 SPXS
バスタイプ Starlink V2M
フェーズステータス In Orbit
所有者/国 SPXS/US

Most Searched